User: anonymous   Login
Location: Caltech
(34.1382°N, 118.1253°W)
Time: 12:32:49
(UTC-08:00)
Language:

SL-16 R/B - Orbit

View from above orbital plane
View from above orbital plane
View from above satellite
View from above satellite

Ground track
Ground track

The orbit data is extracted from the following two-line orbital elements,

1 28353U 04021B   15060.24515438  .00000265  00000-0  16423-3 0  9994
2 28353 071.0018 037.7776 0004306 005.1476 354.9689 14.14122091553555
Epoch (UTC): 01 March 2015 05:53:01
Eccentricity: 0.0004306
inclination: 71.0018°
perigee height: 842 km
apogee height: 848 km
right ascension of ascending node: 37.7776°
argument of perigee: 5.1476°
revolutions per day: 14.14122091
mean anomaly at epoch: 354.9689°
orbit number at epoch: 55355

The dashed part of the orbit path shows where the satellite is in the earth's shadow,  

DLR